EW7114 Weather Reports


time (UTC)temp
F
wind
direction
speed
knots
gust
knots
rain 1hr
in
rain 24hr
in
rain mn
in
humidity
%
barometer
mb
20260902065058 66 138 12.2 17.4 0.00 0.00 0.00 52 1003.8
20260902064617 66 120 11.3 14.8 0.00 0.00 0.00 52 1003.7
20260902064056 66 116 12.2 16.5 0.00 0.00 0.00 52 1003.8
20260902063554 66 130 12.2 16.5 0.00 0.00 0.00 52 1003.8
20260902063056 65 128 9.6 13.9 0.00 0.00 0.00 52 1003.8
20260902062554 64 123 10.4 13.9 0.00 0.00 0.00 53 1003.9
20260902062051 62 135 8.7 12.2 0.00 0.00 0.00 53 1003.9
20260902061553 62 122 8.7 12.2 0.00 0.00 0.00 53 1003.9
20260902061049 62 130 7.8 11.3 0.00 0.00 0.00 53 1003.9
20260902060550 64 130 7.0 13.0 0.00 0.00 0.00 52 1003.9
20260902060051 65 121 8.7 13.0 0.00 0.00 0.00 51 1004.0
20260902055545 65 120 9.6 13.9 0.00 0.00 0.00 51 1004.0
20260902055043 65 118 10.4 14.8 0.00 0.00 0.00 51 1004.0
20260902054543 65 122 12.2 14.8 0.00 0.00 0.00 50 1004.0
20260902054041 66 119 9.6 13.9 0.00 0.00 0.00 49 1004.1
20260902053539 66 115 10.4 13.9 0.00 0.00 0.00 49 1004.1
20260902053038 66 120 10.4 13.0 0.00 0.00 0.00 49 1004.1
20260902052541 67 109 10.4 13.0 0.00 0.00 0.00 48 1004.1
20260902052034 67 122 7.8 13.0 0.00 0.00 0.00 49 1004.1
20260902051533 67 130 8.7 13.9 0.00 0.00 0.00 48 1004.1
20260902051032 67 109 8.7 14.8 0.00 0.00 0.00 49 1004.1
20260902050533 67 100 9.6 14.8 0.00 0.00 0.00 48 1004.1
20260902050029 68 115 9.6 13.9 0.00 0.00 0.00 48 1004.0
20260902045527 68 116 8.7 15.6 0.00 0.00 0.00 48 1004.0
20260902045026 69 121 11.3 15.6 0.00 0.00 0.00 47 1004.1
20260902044526 68 120 8.7 13.9 0.00 0.00 0.00 48 1004.1
20260902044026 69 103 9.6 14.8 0.00 0.00 0.00 47 1004.0
20260902043526 67 132 9.6 14.8 0.00 0.00 0.00 49 1004.1
20260902043025 67 129 8.7 11.3 0.00 0.00 0.00 50 1004.1
20260902042526 68 116 6.1 13.0 0.00 0.00 0.00 50 1004.1
20260902042026 67 109 8.7 13.0 0.00 0.00 0.00 51 1004.1
20260902041524 65 117 7.0 8.7 0.00 0.00 0.00 53 1004.0
20260902041026 65 164 4.3 8.7 0.00 0.00 0.00 53 1004.0
20260902040520 65 118 6.1 9.6 0.00 0.00 0.00 53 1004.1
20260902040020 65 120 7.8 9.6 0.00 0.00 0.00 52 1004.2
20260902035518 65 120 6.1 8.7 0.00 0.00 0.00 52 1004.1
20260902035017 65 125 6.1 8.7 0.00 0.00 0.00 52 1004.0
20260902034516 66 118 7.0 10.4 0.00 0.00 0.00 52 1004.0
20260902034014 66 128 7.0 10.4 0.00 0.00 0.00 52 1003.9
20260902033512 66 110 7.0 9.6 0.00 0.00 0.00 52 1003.9
20260902033011 66 124 6.1 8.7 0.00 0.00 0.00 52 1003.8
20260902032509 65 120 5.2 7.8 0.00 0.00 0.00 52 1003.8
20260902032007 65 157 4.3 6.1 0.00 0.00 0.00 52 1003.7
20260902031506 65 147 4.3 7.0 0.00 0.00 0.00 52 1003.6
20260902031005 66 129 4.3 7.8 0.00 0.00 0.00 52 1003.5
20260902030503 66 118 5.2 7.8 0.00 0.00 0.00 51 1003.5
20260902030002 66 140 4.3 7.0 0.00 0.00 0.00 51 1003.4
20260902025502 66 134 4.3 6.1 0.00 0.00 0.00 51 1003.3
20260902025102 66 161 4.3 5.2 0.00 0.00 0.00 52 1003.3
20260902024609 68 172 3.5 7.0 0.00 0.00 0.00 52 1003.2
20260902024059 69 151 3.5 7.8 0.00 0.00 0.00 52 1003.0
20260902023555 69 145 4.3 7.8 0.00 0.00 0.00 52 1003.1
20260902023101 70 146 4.3 7.0 0.00 0.00 0.00 52 1003.0
20260902022553 70 157 5.2 8.7 0.00 0.00 0.00 51 1003.0
20260902022055 71 136 7.0 10.4 0.00 0.00 0.00 50 1003.0
20260902021554 71 147 7.0 10.4 0.00 0.00 0.00 50 1003.0
20260902021048 72 136 7.0 9.6 0.00 0.00 0.00 49 1003.1
20260902020547 73 172 7.8 9.6 0.00 0.00 0.00 49 1003.1
20260902020045 74 145 8.7 13.9 0.00 0.00 0.00 48 1003.1
20260902015543 74 146 9.6 14.8 0.00 0.00 0.00 47 1003.1
20260902015044 75 143 11.3 14.8 0.00 0.00 0.00 47 1003.2
20260902014543 75 163 9.6 13.9 0.00 0.00 0.00 47 1003.2
20260902014041 75 148 8.7 14.8 0.00 0.00 0.00 46 1003.3
20260902013537 75 149 10.4 14.8 0.00 0.00 0.00 46 1003.3
20260902013036 75 153 9.6 14.8 0.00 0.00 0.00 46 1003.4
20260902012535 76 138 8.7 14.8 0.00 0.00 0.00 46 1003.4
20260902012033 77 134 11.3 14.8 0.00 0.00 0.00 44 1003.5
20260902011532 77 153 9.6 15.6 0.00 0.00 0.00 42 1003.5
20260902011030 77 170 9.6 16.5 0.00 0.00 0.00 42 1003.6
20260902010528 76 177 10.4 16.5 0.00 0.00 0.00 42 1003.6
20260902010027 77 172 12.2 17.4 0.00 0.00 0.00 41 1003.6
20260902005526 77 147 11.3 20.0 0.00 0.00 0.00 41 1003.6
20260902005026 77 180 11.3 24.3 0.00 0.00 0.00 41 1003.7
20260902004526 78 159 9.6 24.3 0.00 0.00 0.00 40 1003.7
20260902004021 78 149 16.5 21.7 0.00 0.00 0.00 40 1003.7
20260902003518 78 150 11.3 15.6 0.00 0.00 0.00 43 1003.7
20260902003024 78 139 10.4 19.1 0.00 0.00 0.00 43 1003.7
20260902002516 79 152 12.2 19.1 0.00 0.00 0.00 41 1003.8
20260902002015 79 165 12.2 20.0 0.00 0.00 0.00 41 1004.0
20260902001515 80 149 12.2 20.9 0.00 0.00 0.00 41 1003.9
20260902001012 79 153 13.0 22.6 0.00 0.00 0.00 41 1004.0
20260902000511 79 199 13.0 22.6 0.00 0.00 0.00 41 1004.1
20260902000010 79 164 14.8 20.9 0.00 0.00 0.00 40 1004.0
20260901235507 79 155 12.2 19.1 0.00 0.00 0.00 40 1004.0
20260901235006 78 170 13.9 19.1 0.00 0.00 0.00 42 1004.1
20260901234505 79 158 13.0 21.7 0.00 0.00 0.00 40 1004.1
20260901234004 80 164 14.8 21.7 0.00 0.00 0.00 39 1004.3
20260901233502 79 184 13.9 24.3 0.00 0.00 0.00 40 1004.2
20260901233100 79 183 13.0 22.6 0.00 0.00 0.00 39 1004.4
20260901232559 80 164 17.4 27.8 0.00 0.00 0.00 38 1004.3
20260901232057 80 156 17.4 27.8 0.00 0.00 0.00 38 1004.4
20260901231556 79 142 14.8 24.3 0.00 0.00 0.00 40 1004.5
20260901231054 78 125 17.4 24.3 0.00 0.00 0.00 40 1004.5
20260901230553 78 165 10.4 20.9 0.00 0.00 0.00 41 1004.6
20260901230052 79 141 15.6 21.7 0.00 0.00 0.00 39 1004.7
20260901225549 79 165 12.2 21.7 0.00 0.01 0.00 39 1004.7
20260901225048 79 165 12.2 22.6 0.00 0.01 0.00 41 1004.8
20260901224547 79 147 13.0 26.1 0.00 0.01 0.00 41 1004.9
20260901224047 79 174 16.5 26.1 0.00 0.01 0.00 41 1005.0
20260901223544 79 156 15.6 23.5 0.00 0.01 0.00 41 1004.8
20260901223047 78 163 16.5 21.7 0.00 0.01 0.00 42 1004.9
20260901222540 77 173 13.0 22.6 0.00 0.01 0.00 42 1005.1
20260901222039 77 176 14.8 22.6 0.00 0.01 0.00 42 1005.1
20260901221538 78 165 15.6 22.6 0.00 0.01 0.00 41 1005.2
20260901221038 79 160 15.6 25.2 0.00 0.01 0.00 39 1005.4
20260901220536 80 180 17.4 25.2 0.00 0.01 0.00 38 1005.4
20260901220037 80 154 16.5 26.9 0.00 0.01 0.00 39 1005.5
20260901215532 80 183 16.5 27.8 0.00 0.01 0.00 39 1005.7
20260901215030 81 182 20.0 33.9 0.00 0.01 0.00 38 1005.7
20260901214533 81 163 14.8 33.9 0.00 0.01 0.00 39 1005.8
20260901214028 80 134 16.5 30.4 0.00 0.01 0.00 37 1005.7
20260901213526 80 155 14.8 27.8 0.00 0.01 0.00 39 1006.0
20260901213030 79 157 20.0 27.8 0.00 0.01 0.00 37 1006.0
20260901212522 78 160 15.6 25.2 0.00 0.01 0.00 42 1006.2
20260901212021 78 178 15.6 21.7 0.00 0.01 0.00 40 1006.2
20260901211520 79 169 16.5 27.8 0.00 0.01 0.00 40 1006.4
20260901211018 80 160 17.4 27.8 0.00 0.01 0.00 41 1006.5
20260901210517 79 151 18.2 24.3 0.00 0.01 0.00 43 1006.6
20260901210016 78 190 13.0 19.1 0.00 0.01 0.00 45 1006.6
20260901205514 78 165 14.8 23.5 0.00 0.01 0.00 46 1006.8
20260901205013 78 182 16.5 26.1 0.00 0.01 0.00 44 1007.0
20260901204513 78 169 18.2 26.1 0.00 0.01 0.00 43 1006.9
20260901204011 79 163 16.5 25.2 0.00 0.01 0.00 46 1006.9
20260901203509 78 181 14.8 26.9 0.00 0.01 0.00 45 1007.1
20260901203009 77 132 14.8 26.1 0.00 0.01 0.00 47 1007.2
20260901202506 78 163 18.2 29.5 0.00 0.01 0.00 46 1007.2
20260901202004 78 138 18.2 28.7 0.00 0.01 0.00 46 1007.2
20260901201503 78 170 20.9 26.1 0.00 0.01 0.00 46 1007.4
20260901201002 77 142 15.6 20.0 0.00 0.01 0.00 47 1007.3
20260901200600 76 149 14.8 20.9 0.00 0.01 0.00 47 1007.5
20260901200059 76 163 12.2 25.2 0.00 0.01 0.00 47 1007.6
20260901195558 76 167 14.8 21.7 0.00 0.01 0.00 47 1007.6
20260901195057 77 159 13.0 21.7 0.00 0.01 0.00 47 1007.5
20260901194559 77 145 16.5 22.6 0.00 0.01 0.00 46 1007.7
20260901194053 76 168 16.5 22.6 0.00 0.01 0.00 47 1007.6
20260901193552 76 175 14.8 20.9 0.00 0.01 0.00 46 1007.9
20260901193054 77 160 15.6 22.6 0.00 0.01 0.00 46 1007.9
20260901192548 76 194 13.9 22.6 0.00 0.01 0.00 48 1008.0
20260901192048 76 161 16.5 22.6 0.00 0.01 0.00 48 1008.0
20260901191546 76 130 13.0 21.7 0.00 0.01 0.00 48 1008.1
20260901191044 75 170 15.6 21.7 0.00 0.01 0.00 49 1008.2
20260901190543 75 159 11.3 20.9 0.00 0.01 0.00 50 1008.1
20260901190045 74 162 15.6 20.9 0.00 0.01 0.00 50 1008.2
20260901185541 74 153 14.8 20.9 0.00 0.01 0.00 50 1008.2
20260901185039 74 141 14.8 20.9 0.00 0.01 0.00 50 1008.2
20260901184545 74 122 15.6 24.3 0.00 0.01 0.00 50 1008.2
20260901184036 74 145 17.4 27.8 0.00 0.01 0.00 50 1008.3
20260901183534 74 135 14.8 27.8 0.00 0.01 0.00 50 1008.2
20260901183035 74 124 15.6 21.7 0.00 0.01 0.00 50 1008.2
20260901182531 74 134 13.9 20.9 0.00 0.01 0.00 50 1008.2
20260901182031 74 126 13.0 20.9 0.00 0.01 0.00 50 1008.3
20260901181533 74 119 16.5 20.9 0.00 0.01 0.00 50 1008.3
20260901181026 73 162 12.2 20.9 0.00 0.01 0.00 50 1008.6
20260901180525 73 126 16.5 22.6 0.00 0.01 0.00 50 1008.6
20260901180024 73 133 14.8 22.6 0.00 0.01 0.00 50 1008.7
20260901175522 73 138 15.6 21.7 0.00 0.01 0.00 50 1008.8
20260901175021 73 125 13.9 21.7 0.00 0.01 0.00 49 1008.8
20260901174519 72 132 14.8 21.7 0.00 0.01 0.00 49 1008.8
20260901174018 72 104 13.9 21.7 0.00 0.01 0.00 48 1008.9
20260901173520 71 113 9.6 16.5 0.00 0.01 0.00 48 1009.0
20260901173015 72 115 11.3 18.2 0.00 0.01 0.00 49 1009.2
20260901172515 72 122 11.3 18.2 0.00 0.01 0.00 48 1009.1
20260901172012 71 133 13.0 16.5 0.00 0.01 0.00 47 1009.1
20260901171512 71 111 11.3 16.5 0.00 0.01 0.00 46 1009.2
20260901171009 70 92 9.6 13.9 0.00 0.01 0.00 44 1009.3
20260901170507 70 113 8.7 13.0 0.00 0.01 0.00 45 1009.3
20260901170007 69 132 8.7 16.5 0.00 0.01 0.00 46 1009.5
20260901165504 69 125 10.4 16.5 0.00 0.01 0.00 46 1009.7
20260901165005 69 137 9.6 16.5 0.00 0.01 0.00 44 1009.7
20260901164502 69 124 7.8 16.5 0.00 0.01 0.00 46 1009.7
20260901164100 70 165 6.1 13.9 0.00 0.01 0.00 46 1009.7
20260901163559 70 135 8.7 14.8 0.00 0.01 0.00 47 1009.7
20260901163057 70 117 8.7 14.8 0.00 0.01 0.00 47 1009.7
20260901162558 70 143 8.7 13.0 0.00 0.01 0.00 46 1009.8
20260901162053 70 154 9.6 14.8 0.00 0.01 0.00 45 1010.0
20260901161554 69 167 9.6 14.8 0.00 0.01 0.00 45 1010.0
20260901161050 69 154 9.6 14.8 0.00 0.01 0.00 45 1010.1
20260901160549 69 137 8.7 13.0 0.00 0.01 0.00 44 1010.2
20260901160048 68 144 8.7 13.0 0.00 0.01 0.00 41 1010.3
20260901155547 67 157 7.0 13.0 0.00 0.01 0.00 39 1010.4
20260901155045 67 185 7.8 13.0 0.00 0.01 0.00 36 1010.5
20260901154544 67 178 7.8 13.0 0.00 0.01 0.00 30 1010.6
20260901154042 67 191 7.8 13.0 0.00 0.01 0.00 26 1010.6
20260901153545 67 193 8.7 12.2 0.00 0.01 0.00 25 1010.6
20260901153042 66 191 7.0 11.3 0.00 0.01 0.00 13 1010.8
20260901152537 65 174 7.8 11.3 0.00 0.01 0.00 9 1010.8
20260901152036 65 153 7.8 11.3 0.00 0.01 0.00 2 1010.9
20260901151535 64 199 7.8 11.3 0.00 0.01 0.00 1 1010.9
20260901151035 64 209 7.8 11.3 0.00 0.01 0.00 1 1011.0
20260901150531 63 199 8.7 11.3 0.00 0.01 0.00 1 1011.0
20260901150031 63 176 7.8 11.3 0.00 0.01 0.00 1 1011.1
20260901145530 63 212 7.8 11.3 0.00 0.01 0.00 1 1011.1
20260901145028 62 185 7.0 12.2 0.00 0.01 0.00 1 1011.1
20260901144529 62 203 6.1 11.3 0.00 0.01 0.00 1 1011.1
20260901144024 62 199 7.8 11.3 0.00 0.01 0.00 1 1011.1
20260901143523 61 207 7.0 10.4 0.00 0.01 0.00 1 1011.1
20260901143022 61 197 7.8 10.4 0.00 0.01 0.00 1 1011.0
20260901142521 60 197 7.8 12.2 0.00 0.01 0.00 1 1011.1
20260901142018 60 195 9.6 12.2 0.00 0.01 0.00 1 1011.1
20260901141531 60 200 8.7 11.3 0.00 0.01 0.00 1 1011.1
20260901141016 59 202 7.8 10.4 0.00 0.01 0.00 1 1011.0
20260901140514 59 188 7.0 10.4 0.00 0.01 0.00 1 1011.0
20260901140012 58 200 7.0 10.4 0.00 0.01 0.00 1 1011.0
20260901135511 58 199 7.8 11.3 0.00 0.01 0.00 1 1011.0
20260901135010 57 208 7.0 10.4 0.00 0.01 0.00 1 1010.9
20260901134511 56 198 7.8 10.4 0.00 0.01 0.00 1 1010.8
20260901134012 55 193 7.8 9.6 0.00 0.01 0.00 1 1010.7
20260901133506 55 211 7.8 9.6 0.00 0.01 0.00 1 1010.7
20260901133005 54 206 7.8 9.6 0.00 0.01 0.00 1 1010.7
20260901132504 54 207 6.1 8.7 0.00 0.01 0.00 1 1010.7
20260901132004 53 204 5.2 7.0 0.00 0.01 0.00 1 1010.7
20260901131604 53 201 4.3 6.1 0.00 0.01 0.00 1 1010.7
20260901131058 53 215 4.3 7.0 0.00 0.01 0.00 1 1010.7
20260901130557 53 209 5.2 7.8 0.00 0.01 0.00 1 1010.6
20260901130055 53 209 5.2 7.8 0.00 0.01 0.00 1 1010.6
20260901125554 53 207 4.3 7.0 0.00 0.01 0.00 1 1010.5
20260901125053 53 207 5.2 7.0 0.00 0.01 0.00 1 1010.5
20260901124555 53 187 4.3 7.0 0.00 0.01 0.00 1 1010.5
20260901124052 53 194 5.2 7.8 0.00 0.01 0.00 1 1010.5
20260901123548 53 195 6.1 7.8 0.00 0.01 0.00 1 1010.5
20260901123046 54 209 5.2 8.7 0.00 0.01 0.00 1 1010.5
20260901122545 54 199 6.1 9.6 0.00 0.01 0.00 1 1010.5
20260901122047 54 205 7.0 8.7 0.00 0.01 0.00 1 1010.5
20260901121545 54 199 7.0 8.7 0.00 0.01 0.00 1 1010.5
20260901121040 54 194 6.1 8.7 0.00 0.01 0.00 1 1010.4
20260901120539 54 205 7.0 9.6 0.00 0.01 0.00 1 1010.5
20260901120037 54 184 6.1 9.6 0.00 0.01 0.00 1 1010.5
20260901115536 54 185 6.1 8.7 0.00 0.01 0.00 1 1010.5
20260901115035 54 196 5.2 7.8 0.00 0.01 0.00 1 1010.6
20260901114550 54 194 6.1 7.8 0.00 0.01 0.00 1 1010.5
20260901114031 54 205 6.1 8.7 0.00 0.01 0.00 1 1010.5
20260901113530 53 195 6.1 7.8 0.00 0.01 0.00 1 1010.4
20260901113028 53 195 5.2 7.8 0.00 0.01 0.00 1 1010.4
20260901112527 54 204 5.2 8.7 0.00 0.01 0.00 1 1010.3
20260901112025 54 213 7.0 8.7 0.00 0.01 0.00 1 1010.2
20260901111524 53 200 6.1 8.7 0.00 0.01 0.00 1 1010.3
20260901111023 53 215 5.2 7.8 0.00 0.01 0.00 1 1010.2
20260901110521 53 217 6.1 9.6 0.00 0.01 0.00 1 1010.2
20260901110021 53 214 7.0 9.6 0.00 0.01 0.00 1 1010.3
20260901105519 53 218 5.2 7.0 0.00 0.01 0.00 1 1010.3
20260901105016 53 209 5.2 7.8 0.00 0.01 0.00 1 1010.4
20260901104515 53 195 5.2 10.4 0.00 0.01 0.00 1 1010.4
20260901104014 53 205 6.1 7.8 0.00 0.01 0.00 1 1010.5
20260901103512 52 201 5.2 7.8 0.00 0.01 0.00 1 1010.5
20260901103011 52 199 5.2 7.8 0.00 0.01 0.00 1 1010.5
20260901102514 52 205 6.1 7.8 0.00 0.01 0.00 1 1010.6
20260901102008 52 203 4.3 6.1 0.00 0.01 0.00 1 1010.6
20260901101506 52 214 4.3 6.1 0.00 0.01 0.00 1 1010.5
20260901101005 52 211 5.2 6.1 0.00 0.01 0.00 1 1010.5
20260901100504 52 202 5.2 7.0 0.00 0.01 0.00 1 1010.6
20260901100001 52 199 4.3 7.0 0.00 0.01 0.00 1 1010.6
20260901095601 52 203 5.2 7.8 0.00 0.01 0.00 1 1010.6
20260901095059 52 198 6.1 7.8 0.00 0.01 0.00 1 1010.6
20260901094558 52 193 6.1 7.0 0.00 0.01 0.00 1 1010.7
20260901094059 52 192 5.2 7.0 0.00 0.01 0.00 1 1010.7
20260901093555 53 203 5.2 7.0 0.00 0.01 0.00 1 1010.7
20260901093053 53 205 5.2 7.0 0.00 0.01 0.00 1 1010.6
20260901092552 53 205 4.3 6.1 0.00 0.01 0.00 1 1010.6
20260901092050 53 205 4.3 5.2 0.00 0.01 0.00 1 1010.7
20260901091553 53 205 3.5 6.1 0.00 0.01 0.00 1 1010.7
20260901091049 54 205 4.3 7.0 0.00 0.01 0.00 1 1010.7
20260901090545 54 199 5.2 7.8 0.00 0.01 0.00 1 1010.7
20260901090044 54 207 5.2 7.8 0.00 0.01 0.00 1 1010.6
20260901085542 54 211 5.2 7.0 0.00 0.01 0.00 1 1010.6
20260901085041 54 208 5.2 7.8 0.00 0.01 0.00 1 1010.6
20260901084540 54 197 6.1 7.8 0.00 0.01 0.00 1 1010.5
20260901084039 54 197 3.5 7.8 0.00 0.01 0.00 1 1010.5
20260901083537 54 196 5.2 8.7 0.00 0.01 0.00 1 1010.6
20260901083036 54 199 6.1 8.7 0.00 0.01 0.00 1 1010.7
20260901082533 54 199 6.1 8.7 0.00 0.01 0.00 1 1010.7
20260901082032 54 204 5.2 8.7 0.00 0.01 0.00 1 1010.7
20260901081538 55 209 6.1 8.7 0.00 0.01 0.00 1 1010.8
20260901081029 54 202 7.0 8.7 0.00 0.01 0.00 1 1010.9
20260901080531 54 196 6.1 8.7 0.00 0.01 0.00 1 1010.9
20260901080516 54 197 6.1 8.7 0.00 0.01 0.00 1 1010.9
20260901080010 54 197 7.0 8.7 0.00 0.01 0.00 1 1010.8
20260901075508 54 195 7.0 8.7 0.00 0.01 0.00 1 1010.8
20260901075010 54 183 6.1 8.7 0.00 0.01 0.00 1 1010.8
20260901074505 54 202 6.1 8.7 0.00 0.01 0.00 1 1010.9
20260901074003 55 195 7.0 8.7 0.00 0.01 0.00 1 1011.0
20260901073502 55 214 7.0 9.6 0.00 0.01 0.00 1 1011.0
20260901073102 55 206 7.0 12.2 0.00 0.01 0.00 1 1010.9
20260901072559 55 220 7.8 12.2 0.00 0.01 0.00 1 1011.0
20260901072059 55 221 7.0 9.6 0.00 0.01 0.00 1 1011.0
20260901071557 55 205 7.8 10.4 0.00 0.01 0.00 1 1010.9
20260901071056 55 224 8.7 10.4 0.00 0.01 0.00 1 1010.9
20260901070554 55 212 8.7 11.3 0.00 0.01 0.00 1 1011.0
20260901070053 55 228 7.0 9.6 0.00 0.01 0.00 1 1010.9
20260901065550 55 209 7.0 9.6 0.00 0.01 0.00 1 1011.1